{"data":{"norad_id":52312,"intl_designator":"2022-041BD","name":"STARLINK-3752","alt_names":[],"object_type":"PAYLOAD","status":"ACTIVE","operator":null,"country":"US","launch_date":"2022-04-21","launch_site_code":"AFETR","launch_vehicle":null,"mission":null,"orbit_class":"UNKNOWN","rcs_meters":null,"size_class":null,"mass_kg":null,"dimensions":null,"purposes":["comms"],"wikipedia_slug":null,"has_3d_model":false,"image_url":null,"decayed_at":null,"tle_current":{"epoch":"2026-05-25T03:53:30.591168Z","epoch_age_seconds":64337,"freshness":"FRESH","line1":"1 52312U 22041BD  26145.16215962 -.00000162  00000+0  79391-5 0  9995","line2":"2 52312  53.2152 105.7709 0001410  82.8027 277.3125 15.08842487227415","mean_motion":15.08842487,"eccentricity":0.000141,"inclination_deg":53.2152,"raan_deg":105.7709,"arg_perigee_deg":82.8027,"mean_anomaly_deg":277.3125,"bstar":7.9391e-6,"rev_number":22741,"period_min":95.43739736963,"perigee_km":538.76036714749,"apogee_km":540.71120727348,"semimajor_km":6917.8727872105,"source":"CELESTRAK","updated_at":"2026-05-25T13:38:17.111540Z"}}}